Regional Weather Roundup
Issued by NWS Raleigh/Durham, NC

Home | Current Version | Previous Version | Text Only | Print | Product List | Glossary On
Versions: 1 2 3 4 5 6 7 8 9 10 11 12 13 14 15 16 17 18 19 20 21 22 23 24 25 26 27 28 29 30 31 32 33 34 35 36 37 38 39 40 41 42 43 44 45 46 47 48 49 50
683
ASUS42 KRAH 230010
RWRRAH
NORTH CAROLINA WEATHER ROUNDUP
NATIONAL WEATHER SERVICE RALEIGH NC
700 PM EST MON JAN 22 2018

NOTE: "FAIR" INDICATES FEW OR NO CLOUDS BELOW 12,000 FEET WITH NO
SIGNIFICANT WEATHER AND/OR OBSTRUCTIONS TO VISIBILITY.

NCZ001-053-055-056-065-067-230100-
WESTERN NORTH CAROLINA

CITY           SKY/WX    TMP DP  RH WIND       PRES   REMARKS
ASHEVILLE      RAIN      48  46  93 SW3       30.01R FOG
JEFFERSON      CLOUDY    46  41  84 CALM      30.00S
MORGANTON      CLOUDY    55  46  74 NW5       30.04F
HICKORY        CLOUDY    56  42  59 CALM      30.00S
RUTHERFORDTON  CLOUDY    51  51  99 NW5       30.01S
MOUNT AIRY     CLOUDY    59  42  54 CALM      30.03S
BOONE          RAIN      45  43  95 E3        30.02R
$$

NCZ021-022-025-041-071-084-088-230100-
CENTRAL NORTH CAROLINA

CITY           SKY/WX    TMP DP  RH WIND       PRES   REMARKS
CHARLOTTE      MOCLDY    59  46  62 SE12      30.02F
GREENSBORO     CLOUDY    55  43  63 S10       30.02F
WINSTON-SALEM  MOCLDY    58  42  55 S7        30.03F
RALEIGH-DURHAM MOCLDY    56  43  61 SE3       30.07F
FORT BRAGG     FAIR      57  46  67 SE5       30.05F
FAYETTEVILLE   FAIR      60  52  74 SE8       30.07F
BURLINGTON     FAIR      58  44  60 SE5       30.03F
LAURINBURG     FAIR      59  50  72 SE7       30.07F
$$

NCZ011-015-027-028-043-044-047-080-103-230100-
NORTHEASTERN NORTH CAROLINA

CITY           SKY/WX    TMP DP  RH WIND       PRES   REMARKS
ROCKY MT-WILSO FAIR      57  47  69 S5        30.08F
GREENVILLE     FAIR      61  52  72 S6        30.12F
WASHINGTON     FAIR      59  51  73 CALM      30.12S
ELIZABETH CITY MOCLDY    57  52  83 S7        30.13R
MANTEO         FAIR      52  46  78 S5        30.14S
CAPE HATTERAS  NOT AVBL
$$

NCZ078-087-090-091-093-098-101-230100-
SOUTHEASTERN NORTH CAROLINA

CITY           SKY/WX    TMP DP  RH WIND       PRES   REMARKS
LUMBERTON      FAIR      59  53  80 SE7       30.07F
GOLDSBORO      FAIR      60  53  75 SE6       30.07F
KENANSVILLE    MOCLDY    59  55  88 SE5       30.10F
NEW BERN       FAIR      58  53  84 S5        30.13F
CHERRY POINT   NOT AVBL
BEAUFORT       FAIR      61  56  83 S9        30.13F
JACKSONVILLE   MOCLDY    54  54 100 CALM      30.11F
WILMINGTON     MOCLDY    54  53  97 CALM      30.11F
$$





USA.gov is the U.S. government's official web portal to all federal, state and local government web resources and services.